sat.trackr.live / text

‹ back to catalog

STARLINK-30408

NORAD 57824 · 2023-138S

PAYLOAD ACTIVE UNKNOWN

§ Identity

Operator
Country
US
Launch date
2023-09-09
Launch site
AFETR
Launch vehicle
Mass (kg)
RCS (m²)

Purposes: comms

External: N2YO · Heavens-Above · Gunter

§ Orbital elements

Epoch: 2026-05-25T01:53:12.607296Z

Period
94.27 min
Inclination
43.0025°
Eccentricity
0.0001299
Mean motion
15.27562325 rev/d
Perigee alt
482.2 km
Apogee alt
484.0 km
Semi-major
6,861.2 km
B*
-2.5279e-5
RAAN
162.5514°
Arg perigee
277.6607°
Mean anomaly
82.4097°
Rev number
15,041

§ Raw data

STARLINK-304081 57824U 23138S   26145.07861814 -.00000957  00000+0 -25279-4 0  99972 57824  43.0025 162.5514 0001299 277.6607  82.4097 15.27562325150411

JSON: /api/v1/satellites/57824 · /tle

For live sub-satellite position, see the globe view (requires WebGL).

§ Visibility from observer

Set your observer location to see the next 7 days of passes ≥ 10°. The values pass through the URL so the page stays shareable.

No JS? Fill the form by hand. The geolocation button needs JavaScript.